This is the latest recevied weather packets stored in our database for station/object W5DNT. If no packets are shown the sender has not sent any weather packets the latest 10 day(s).
| Time | Temp. | Humidity | Pressure | Rain* | Wind** | Luminosity | Snow |
|---|---|---|---|---|---|---|---|
| 1777923917 | 25.56° C | 64% | 1009.9 hPa | 0 mm | - | - | - |
| 1777923014 | 26.11° C | 65% | 1009.9 hPa | 0 mm | - | - | - |
| 1777922123 | 25.56° C | 65% | 1010.2 hPa | 0 mm | - | - | - |
| 1777921212 | 25° C | 65% | 1010.1 hPa | 0 mm | - | - | - |
| 1777920312 | 25° C | 66% | 1010.6 hPa | 0 mm | - | - | - |
| 1777919404 | 25° C | 66% | 1011 hPa | 0 mm | - | - | - |
| 1777918502 | 25° C | 65% | 1011.1 hPa | 0 mm | - | - | - |
| 1777917662 | 24.44° C | 66% | 1011.2 hPa | 0 mm | - | - | - |
| 1777916767 | 24.44° C | 66% | 1011.4 hPa | 0 mm | - | - | - |
| 1777915860 | 24.44° C | 67% | 1011.5 hPa | 0 mm | - | - | - |
| 1777914949 | 23.89° C | 67% | 1011.6 hPa | 0 mm | - | - | - |
| 1777914046 | 23.89° C | 68% | 1011.8 hPa | 0 mm | - | - | - |
| 1777913148 | 22.78° C | 69% | 1012.1 hPa | 0 mm | - | - | - |
| 1777912243 | 22.78° C | 68% | 1012.4 hPa | 0 mm | - | - | - |
| 1777911337 | 22.78° C | 70% | 1012.3 hPa | 0 mm | - | - | - |
| 1777910434 | 22.22° C | 70% | 1012.4 hPa | 0 mm | - | - | - |
| 1777909533 | 21.67° C | 72% | 1012.6 hPa | 0 mm | - | - | - |
| 1777908629 | 21.11° C | 72% | 1012.9 hPa | 0 mm | - | - | - |
| 1777907726 | 20.56° C | 74% | 1012.8 hPa | 0 mm | - | - | - |
| 1777906821 | 20° C | 75% | 1013 hPa | 0 mm | - | - | - |
| 1777905919 | 19.44° C | 78% | 1013.1 hPa | 0 mm | - | - | - |
| 1777905020 | 18.89° C | 78% | 1013.2 hPa | 0 mm | - | - | - |
| 1777904112 | 18.33° C | 79% | 1013.3 hPa | 0 mm | - | - | - |
| 1777903217 | 17.78° C | 80% | 1013.2 hPa | 0 mm | - | - | - |
| 1777902310 | 17.22° C | 80% | 1013.2 hPa | 0 mm | - | - | - |
* Rain latest hour (hover to see other rain measurements)
** Current wind speed in m/s (hover to see current wind gust speed)